VVHU700 KNDZ-KNDZ

Flight info

Callsign VVHU700
Flight time 0h 15m
Altitude 9000
Route VFR
Aircraft H60/L-DV/C

Departure

Time 2026-04-13 20:49
Airport Whiting Field Naval Air Station South Airport (KNDZ)

Arrival

Time 2026-04-13 21:04
Airport Whiting Field Naval Air Station South Airport (KNDZ)
Time Latitude Longitude Altitude Speed Heading
2026-04-13 20:05 30.70076 -87.01630 177 ft 0 kts
2026-04-13 20:11 30.70077 -87.01630 177 ft 0 kts 345°
2026-04-13 20:11 30.70075 -87.01628 177 ft 4 kts 188°
2026-04-13 20:12 30.70044 -87.01642 176 ft 5 kts 271°
2026-04-13 20:12 30.70042 -87.01709 175 ft 7 kts 262°
2026-04-13 20:12 30.70034 -87.01751 175 ft 4 kts 255°
2026-04-13 20:12 30.70031 -87.01778 179 ft 2 kts 262°
2026-04-13 20:13 30.70042 -87.01876 195 ft 24 kts 265°
2026-04-13 20:13 30.69892 -87.01962 280 ft 41 kts 174°
2026-04-13 20:13 30.69550 -87.01914 645 ft 60 kts 175°
2026-04-13 20:13 30.69034 -87.01813 662 ft 90 kts 173°
2026-04-13 20:14 30.68342 -87.01652 535 ft 111 kts 171°
2026-04-13 20:14 30.67562 -87.01452 358 ft 121 kts 169°
2026-04-13 20:14 30.66588 -87.01228 428 ft 159 kts 169°
2026-04-13 20:14 30.65582 -87.00974 418 ft 144 kts 168°
2026-04-13 20:15 30.64590 -87.00741 417 ft 147 kts 168°
2026-04-13 20:15 30.63584 -87.00483 429 ft 150 kts 168°
2026-04-13 20:15 30.62560 -87.00220 426 ft 150 kts 168°
2026-04-13 20:15 30.61543 -86.99954 415 ft 146 kts 168°
2026-04-13 20:16 30.60554 -86.99670 439 ft 149 kts 168°
2026-04-13 20:16 30.59537 -86.99391 493 ft 151 kts 168°
2026-04-13 20:16 30.58523 -86.99095 482 ft 147 kts 168°
2026-04-13 20:16 30.57524 -86.98804 469 ft 148 kts 168°
2026-04-13 20:17 30.56530 -86.98502 480 ft 148 kts 168°
2026-04-13 20:17 30.55523 -86.98224 479 ft 149 kts 168°
2026-04-13 20:17 30.54519 -86.97932 481 ft 150 kts 168°
2026-04-13 20:17 30.53528 -86.97634 479 ft 141 kts 167°
2026-04-13 20:18 30.52563 -86.97341 478 ft 145 kts 167°
2026-04-13 20:18 30.51574 -86.97061 476 ft 149 kts 167°
2026-04-13 20:18 30.50588 -86.96777 480 ft 145 kts 167°
2026-04-13 20:18 30.49587 -86.96500 483 ft 149 kts 167°
2026-04-13 20:19 30.48572 -86.96207 472 ft 149 kts 167°
2026-04-13 20:19 30.47669 -86.95963 472 ft 144 kts 167°
2026-04-13 20:19 30.46762 -86.95709 485 ft 147 kts 167°
2026-04-13 20:19 30.45754 -86.95447 482 ft 151 kts 167°
2026-04-13 20:20 30.44744 -86.95151 483 ft 149 kts 167°
2026-04-13 20:20 30.43752 -86.94862 480 ft 148 kts 167°
2026-04-13 20:20 30.42739 -86.94554 474 ft 148 kts 167°
2026-04-13 20:20 30.41758 -86.94242 485 ft 149 kts 167°
2026-04-13 20:21 30.40739 -86.93921 486 ft 150 kts 167°
2026-04-13 20:21 30.39733 -86.93615 486 ft 152 kts 167°
2026-04-13 20:21 30.38715 -86.93303 484 ft 151 kts 167°
2026-04-13 20:21 30.37697 -86.92996 476 ft 150 kts 167°
2026-04-13 20:22 30.36677 -86.92693 470 ft 152 kts 167°
2026-04-13 20:22 30.35679 -86.92417 460 ft 126 kts 167°
2026-04-13 20:22 30.35053 -86.92258 295 ft 61 kts 167°
2026-04-13 20:22 30.34865 -86.92210 218 ft 1 kts 167°
2026-04-13 20:23 30.34867 -86.92210 309 ft 1 kts 167°
2026-04-13 20:23 30.34865 -86.92209 216 ft 0 kts 167°
2026-04-13 20:23 30.34863 -86.92210 119 ft 0 kts 167°
2026-04-13 20:24 30.34861 -86.92210 25 ft 1 kts 167°
2026-04-13 20:24 30.34861 -86.92211 44 ft 1 kts 167°
2026-04-13 20:24 30.34815 -86.92200 69 ft 16 kts 167°
2026-04-13 20:24 30.34624 -86.92151 38 ft 41 kts 167°
2026-04-13 20:25 30.34352 -86.92082 62 ft 40 kts 167°
2026-04-13 20:25 30.34079 -86.92013 67 ft 40 kts 167°
2026-04-13 20:25 30.33806 -86.91944 65 ft 40 kts 167°
2026-04-13 20:25 30.33532 -86.91874 65 ft 40 kts 167°
2026-04-13 20:26 30.33259 -86.91805 68 ft 40 kts 167°
2026-04-13 20:26 30.32986 -86.91736 68 ft 40 kts 167°
2026-04-13 20:26 30.32712 -86.91666 68 ft 40 kts 167°
2026-04-13 20:26 30.32439 -86.91597 69 ft 40 kts 167°
2026-04-13 20:27 30.32263 -86.91623 142 ft 14 kts 232°
2026-04-13 20:27 30.32261 -86.91669 64 ft 4 kts 261°
2026-04-13 20:27 30.32252 -86.91748 67 ft 15 kts 261°
2026-04-13 20:27 30.32239 -86.91830 70 ft 22 kts 261°
2026-04-13 20:28 30.32219 -86.91991 73 ft 40 kts 261°
2026-04-13 20:28 30.32176 -86.92316 70 ft 48 kts 261°
2026-04-13 20:28 30.32166 -86.92393 74 ft 50 kts 261°
2026-04-13 20:29 30.32140 -86.92581 70 ft 50 kts 261°
2026-04-13 20:29 30.32088 -86.92983 50 ft 50 kts 261°
2026-04-13 20:29 30.32036 -86.93384 50 ft 50 kts 261°
2026-04-13 20:30 30.31983 -86.93784 47 ft 50 kts 261°
2026-04-13 20:30 30.31930 -86.94182 100 ft 50 kts 261°
2026-04-13 20:30 30.31877 -86.94585 43 ft 51 kts 261°
2026-04-13 20:30 30.31824 -86.94986 44 ft 50 kts 261°
2026-04-13 20:31 30.31664 -86.95189 232 ft 26 kts 181°
2026-04-13 20:31 30.31521 -86.95158 204 ft 25 kts 166°
2026-04-13 20:31 30.31246 -86.95081 104 ft 50 kts 166°
2026-04-13 20:31 30.30905 -86.94986 42 ft 50 kts 166°
2026-04-13 20:32 30.30568 -86.94891 90 ft 50 kts 166°
2026-04-13 20:32 30.30230 -86.94796 149 ft 50 kts 166°
2026-04-13 20:32 30.29893 -86.94700 195 ft 50 kts 166°
2026-04-13 20:32 30.29555 -86.94604 284 ft 50 kts 166°
2026-04-13 20:33 30.29221 -86.94509 465 ft 50 kts 166°
2026-04-13 20:33 30.28882 -86.94414 485 ft 50 kts 166°
2026-04-13 20:33 30.28544 -86.94318 471 ft 50 kts 166°
2026-04-13 20:33 30.28156 -86.94208 429 ft 82 kts 166°
2026-04-13 20:34 30.27446 -86.93950 409 ft 120 kts 143°
2026-04-13 20:34 30.27094 -86.93116 225 ft 120 kts 98°
2026-04-13 20:34 30.27180 -86.92165 97 ft 120 kts 62°
2026-04-13 20:34 30.27818 -86.91619 89 ft 120 kts
2026-04-13 20:35 30.28639 -86.91775 46 ft 121 kts 348°
2026-04-13 20:35 30.29460 -86.91982 110 ft 121 kts 348°
2026-04-13 20:35 30.30279 -86.92189 101 ft 121 kts 348°
2026-04-13 20:35 30.31099 -86.92396 97 ft 121 kts 348°
2026-04-13 20:36 30.31918 -86.92602 95 ft 121 kts 348°
2026-04-13 20:36 30.32738 -86.92809 93 ft 121 kts 348°
2026-04-13 20:36 30.33560 -86.93020 260 ft 123 kts 343°
2026-04-13 20:36 30.34472 -86.93294 661 ft 145 kts 336°
2026-04-13 20:37 30.35391 -86.93634 687 ft 135 kts 341°
2026-04-13 20:37 30.36279 -86.94016 670 ft 130 kts 341°
2026-04-13 20:37 30.37167 -86.94400 672 ft 137 kts 341°
2026-04-13 20:37 30.38073 -86.94739 666 ft 132 kts 341°
2026-04-13 20:38 30.39000 -86.95075 666 ft 137 kts 341°
2026-04-13 20:38 30.39896 -86.95407 668 ft 137 kts 341°
2026-04-13 20:38 30.40796 -86.95743 661 ft 136 kts 341°
2026-04-13 20:38 30.41677 -86.96051 658 ft 133 kts 341°
2026-04-13 20:39 30.42569 -86.96391 659 ft 135 kts 341°
2026-04-13 20:39 30.43471 -86.96708 666 ft 141 kts 341°
2026-04-13 20:39 30.44069 -86.96923 666 ft 135 kts 341°
2026-04-13 20:39 30.44964 -86.97259 664 ft 138 kts 341°
2026-04-13 20:40 30.45865 -86.97602 674 ft 140 kts 341°
2026-04-13 20:40 30.46767 -86.97943 661 ft 139 kts 341°
2026-04-13 20:40 30.47666 -86.98320 668 ft 136 kts 341°
2026-04-13 20:40 30.48874 -86.98806 656 ft 136 kts 341°
2026-04-13 20:41 30.49781 -86.99160 655 ft 137 kts 341°
2026-04-13 20:41 30.50693 -86.99521 673 ft 133 kts 341°
2026-04-13 20:41 30.51318 -86.99754 658 ft 142 kts 341°
2026-04-13 20:41 30.52226 -87.00107 669 ft 130 kts 341°
2026-04-13 20:42 30.53152 -87.00457 665 ft 134 kts 341°
2026-04-13 20:42 30.54050 -87.00802 663 ft 144 kts 341°
2026-04-13 20:42 30.54968 -87.01145 659 ft 136 kts 341°
2026-04-13 20:42 30.55924 -87.01469 662 ft 136 kts 341°
2026-04-13 20:43 30.56820 -87.01785 666 ft 140 kts 341°
2026-04-13 20:43 30.57711 -87.02106 655 ft 138 kts 341°
2026-04-13 20:43 30.58598 -87.02439 664 ft 133 kts 341°
2026-04-13 20:43 30.59502 -87.02758 633 ft 139 kts 341°
2026-04-13 20:44 30.60385 -87.03076 627 ft 133 kts 341°
2026-04-13 20:44 30.61295 -87.03406 625 ft 135 kts 341°
2026-04-13 20:44 30.62153 -87.03716 631 ft 134 kts 341°
2026-04-13 20:44 30.63033 -87.04054 630 ft 124 kts 341°
2026-04-13 20:45 30.63925 -87.04373 627 ft 141 kts 341°
2026-04-13 20:45 30.64808 -87.04718 632 ft 138 kts 341°
2026-04-13 20:45 30.65718 -87.05063 625 ft 140 kts 341°
2026-04-13 20:46 30.67548 -87.05787 627 ft 136 kts 341°
2026-04-13 20:46 30.68434 -87.06000 643 ft 111 kts 10°
2026-04-13 20:46 30.69040 -87.05648 626 ft 105 kts 38°
2026-04-13 20:46 30.69737 -87.05134 612 ft 138 kts 37°
2026-04-13 20:47 30.70544 -87.04528 616 ft 135 kts 41°
2026-04-13 20:47 30.71253 -87.03843 624 ft 137 kts 30°
2026-04-13 20:47 30.71806 -87.02938 481 ft 124 kts 52°
2026-04-13 20:47 30.72423 -87.02183 355 ft 129 kts 46°
2026-04-13 20:48 30.72751 -87.01431 712 ft 86 kts 100°
2026-04-13 20:48 30.72480 -87.00872 678 ft 95 kts 129°
2026-04-13 20:48 30.72040 -87.00115 411 ft 124 kts 129°
2026-04-13 20:48 30.71591 -86.99311 699 ft 117 kts 129°
2026-04-13 20:49 30.71171 -86.98533 1138 ft 120 kts 129°
2026-04-13 20:49 30.70633 -86.97714 1635 ft 126 kts 142°
2026-04-13 20:49 30.70004 -86.97042 2143 ft 124 kts 152°
2026-04-13 20:49 30.69271 -86.96522 2633 ft 125 kts 162°
2026-04-13 20:50 30.68452 -86.96171 3054 ft 126 kts 172°
2026-04-13 20:50 30.67537 -86.96003 2821 ft 141 kts 178°
2026-04-13 20:50 30.66549 -86.96239 2413 ft 149 kts 198°
2026-04-13 20:50 30.65759 -86.96971 2039 ft 147 kts 243°
2026-04-13 20:51 30.65814 -86.97995 1890 ft 124 kts 311°
2026-04-13 20:51 30.66556 -86.98683 1166 ft 153 kts 320°
2026-04-13 20:51 30.67383 -86.99355 666 ft 138 kts 317°
2026-04-13 20:51 30.68138 -87.00057 478 ft 147 kts 315°
2026-04-13 20:52 30.68837 -87.00729 432 ft 121 kts 316°
2026-04-13 20:52 30.69516 -87.01448 256 ft 137 kts 318°
2026-04-13 20:52 30.70198 -87.02168 375 ft 131 kts 318°
2026-04-13 20:52 30.70703 -87.02940 796 ft 109 kts 277°
2026-04-13 20:53 30.70564 -87.03645 1013 ft 81 kts 214°
2026-04-13 20:53 30.70080 -87.03616 1122 ft 82 kts 148°
2026-04-13 20:53 30.69672 -87.02936 643 ft 126 kts 136°
2026-04-13 20:53 30.69136 -87.02218 646 ft 116 kts 136°
2026-04-13 20:54 30.68620 -87.01521 656 ft 112 kts 136°
2026-04-13 20:54 30.68090 -87.00822 655 ft 118 kts 136°
2026-04-13 20:54 30.67594 -87.00129 686 ft 96 kts 90°
2026-04-13 20:54 30.67958 -86.99750 637 ft 101 kts 350°
2026-04-13 20:55 30.68556 -87.00351 544 ft 129 kts 313°
2026-04-13 20:55 30.69183 -87.01114 383 ft 128 kts 315°
2026-04-13 20:55 30.69846 -87.01806 274 ft 127 kts 316°
2026-04-13 20:55 30.70188 -87.02607 410 ft 112 kts 246°
2026-04-13 20:56 30.69529 -87.02899 449 ft 117 kts 157°
2026-04-13 20:56 30.69032 -87.02315 1018 ft 91 kts 139°
2026-04-13 20:56 30.68589 -87.01790 1317 ft 95 kts 141°
2026-04-13 20:56 30.68082 -87.01202 1011 ft 110 kts 141°
2026-04-13 20:57 30.67601 -87.00607 746 ft 119 kts 129°
2026-04-13 20:57 30.68092 -86.99777 478 ft 151 kts 355°
2026-04-13 20:57 30.68725 -87.00550 602 ft 131 kts 315°
2026-04-13 20:57 30.69327 -87.01264 295 ft 117 kts 317°
2026-04-13 20:58 30.69928 -87.01894 415 ft 113 kts 313°
2026-04-13 20:58 30.69824 -87.02574 419 ft 99 kts 198°
2026-04-13 20:58 30.69223 -87.02258 755 ft 101 kts 144°
2026-04-13 20:58 30.68694 -87.01665 892 ft 112 kts 141°
2026-04-13 20:59 30.68130 -87.00939 589 ft 131 kts 134°
2026-04-13 20:59 30.67742 -87.00110 686 ft 111 kts 77°
2026-04-13 20:59 30.68331 -87.00054 515 ft 117 kts 313°
2026-04-13 20:59 30.68837 -87.00745 395 ft 107 kts 314°
2026-04-13 21:00 30.69354 -87.01284 267 ft 93 kts 315°
2026-04-13 21:00 30.69809 -87.01758 260 ft 84 kts 315°
2026-04-13 21:00 30.70075 -87.02315 468 ft 85 kts 251°
2026-04-13 21:00 30.69573 -87.02455 713 ft 96 kts 174°
2026-04-13 21:01 30.69130 -87.01769 713 ft 104 kts 138°
2026-04-13 21:01 30.68575 -87.01271 760 ft 98 kts 148°
2026-04-13 21:01 30.68312 -87.00730 691 ft 87 kts 41°
2026-04-13 21:01 30.68915 -87.00822 268 ft 107 kts 317°
2026-04-13 21:02 30.69452 -87.01404 338 ft 104 kts 315°
2026-04-13 21:02 30.69993 -87.01957 429 ft 107 kts 316°
2026-04-13 21:02 30.69995 -87.02729 496 ft 117 kts 226°
2026-04-13 21:02 30.69224 -87.02696 854 ft 122 kts 143°
2026-04-13 21:03 30.68683 -87.02061 1406 ft 110 kts 139°
2026-04-13 21:03 30.68068 -87.01374 985 ft 135 kts 141°
2026-04-13 21:03 30.67388 -87.00561 699 ft 145 kts 111°
2026-04-13 21:03 30.67755 -86.99659 706 ft 142 kts 11°
2026-04-13 21:04 30.68469 -87.00095 618 ft 122 kts 315°
2026-04-13 21:04 30.69071 -87.00973 292 ft 128 kts 316°
2026-04-13 21:04 30.69577 -87.01522 236 ft 72 kts 316°
2026-04-13 21:04 30.69816 -87.01777 198 ft 23 kts 317°
2026-04-13 21:05 30.69850 -87.01803 174 ft 1 kts 314°
2026-04-13 21:05 30.69862 -87.01817 170 ft 4 kts 311°
2026-04-13 21:05 30.69875 -87.01834 170 ft 6 kts 318°
2026-04-13 21:05 30.69913 -87.01877 171 ft 14 kts 315°
2026-04-13 21:06 30.70031 -87.01877 173 ft 20 kts 64°
2026-04-13 21:06 30.70043 -87.01751 175 ft 12 kts 84°
2026-04-13 21:06 30.70048 -87.01694 175 ft 2 kts 174°
2026-04-13 21:06 30.70075 -87.01693 176 ft 0 kts 184°